Regional Weather Roundup
Issued by NWS

Home | Current Version | Previous Version | Text Only | Print | Product List | Glossary Off
Versions: 1 2 3 4 5 6 7 8 9 10 11 12 13 14 15 16 17 18 19 20 21 22 23 24 25 26 27 28 29 30 31 32 33 34 35 36 37 38 39 40 41 42 43 44 45 46 47 48 49 50

358
ASUS45 KTFX 241910
RWRMT
MONTANA REGIONAL WEATHER ROUNDUP
NATIONAL WEATHER SERVICE GREAT FALLS MT
100 PM MDT WED MAY 24 2017

NOTE: "FAIR" INDICATES FEW OR NO CLOUDS BELOW 12000 FEET WITH NO
SIGNIFICANT WEATHER AND/OR OBSTRUCTIONS TO VISIBILITY.

MTZ001>007-043-242000-
WEST OF THE DIVIDE

CITY           SKY/WX    TMP DP  RH WIND       PRES   REMARKS
KALISPELL      MOSUNNY   55  19  24 W28G40    29.56F
MISSOULA       SUNNY     61  22  22 W22G31    29.65S
BUTTE          SUNNY     59  14  17 W22G35    29.61S
MULLAN PASS    MIX PCPN  35  20  54 W9G28     29.72R WCI  28
ANACONDA         N/A     57  10  15 W25G38    29.61S
DEER LODGE       N/A     57  16  19 W15G26    29.62S
EUREKA           N/A     54  19  26 SW10      29.56R
HAMILTON         N/A     57  18  21 W24G35    29.68S
PLAINS           N/A     59  25  27 SW13      29.70R
RONAN            N/A     59  23  25 SW23      29.70F
$$

MTZ008-052>055-242000-
SOUTHWEST MONTANA

CITY           SKY/WX    TMP DP  RH WIND       PRES   REMARKS
BOZEMAN        SUNNY     69  27  20 NW30G37   29.47S
DILLON         SUNNY     68  29  23 W15G28    29.53S
W YELLOWSTONE  SUNNY     66  41  39 SW26G40   29.59F
ENNIS          SUNNY     72  34  25 W21G30    29.54S
THREE FORKS      N/A     69  19  15 W22       29.54R
TWIN BRIDGES     N/A     68  24  19 W17       29.59S
$$

MTZ009-010-012-014-046-048-049-054-242000-
EAST SLOPES AND CENTRAL MONTANA

CITY           SKY/WX    TMP DP  RH WIND       PRES   REMARKS
CUT BANK       SUNNY     57  15  19 W39G51    29.35F
GREAT FALLS    SUNNY     65  22  19 SW36G45   29.42F
MALMSTROM AFB  MOSUNNY   64  22  20 SW35G47   29.43F
HELENA         SUNNY     66  15  14 W28G39    29.53F
CHOTEAU          N/A     61  12  15 W35G45    29.43F
CONRAD           N/A     61  31  32 SW33      29.48S
$$

MTZ011-013-016-021-045-047-050-051-242000-
NORTH CENTRAL MONTANA

CITY           SKY/WX    TMP DP  RH WIND       PRES   REMARKS
HAVRE          SUNNY     71  11  10 W37G46    29.31S
LEWISTOWN      PTSUNNY   65  27  23 NW30G47   29.39F
N BAR RANCH    PTSUNNY   64  32  29 NW24G35   29.43F
CHINOOK          N/A     72  16  12 W29G39    29.29S
FORT BENTON      N/A     66  19  16 CALM      29.39F
$$

MTZ017>020-022>027-061-062-242000-
NORTHEAST MONTANA

CITY           SKY/WX    TMP DP  RH WIND       PRES   REMARKS
GLASGOW        CLOUDY    76  27  16 W20G35    29.26R
JORDAN           N/A     74  42  31 NW29G41   29.27R
SIDNEY         CLOUDY    76  41  28 S26G36    29.33F
WOLF POINT     MOSUNNY   85  42  22 S9G22     29.23F
MALTA          PTSUNNY   73  28  19 W25G37    29.24R
PLENTYWOOD       N/A     72  37  28 SE36      29.29F
SCOBEY           N/A     78  42  27 SE12      29.29F
$$

MTZ028>42-056>058-242000-
SOUTHCENTRAL AND SOUTHEAST MONTANA

CITY           SKY/WX    TMP DP  RH WIND       PRES   REMARKS
BAKER          SUNNY     73  40  30 S24G39    29.42F
BILLINGS       PTSUNNY   79  39  23 SW15G23   29.30F
LIVINGSTON     CLOUDY    71  37  28 W25G33    29.39F
MILES CITY     SUNNY     83  45  26 SE17G26   29.30F
BIG TIMBER     SUNNY     72  36  26 NW22G30   29.41S
EKALAKA          N/A     72  41  32 SE22      29.47F
FORSYTH          N/A     84  39  20 SW15      29.27F
LAUREL           N/A     78  43  28 SW16      29.37R
ROUNDUP          N/A     68  48  48 NW14      29.33R
$$

REGIONAL REPORTS...DAKOTAS

CITY           SKY/WX    TMP DP  RH WIND       PRES   REMARKS
WILLISTON      CLOUDY    72  37  28 S22G35    29.37F
MINOT          SUNNY     70  35  27 SE21G36   29.50F
DICKINSON      SUNNY     68  32  26 S31G41    29.45F
BEACH            N/A     72  37  28 S32G41    29.42F
TIOGA            N/A     68  34  28 S32G46    29.42F
WATFORD CITY     N/A     72  36  26 SE30G37   29.39F
BISMARCK       SUNNY     67  40  37 SE23G29   29.59F
GRAND FORKS    MOSUNNY   69  41  36 SE22G32   29.68F
FARGO          PTSUNNY   64  42  44 S15       29.71F
BUFFALO SD       N/A     71  40  32 S30G37    29.40F
RAPID CITY     SUNNY     70  43  37 S22G33    29.54F
$$

REGIONAL REPORTS...WYOMING/IDAHO/WASHINGTON

CITY           SKY/WX    TMP DP  RH WIND       PRES   REMARKS
GILLETTE       SUNNY     77  49  37 S14       29.48F
SHERIDAN       SUNNY     83  40  21 CALM      29.41F
BUFFALO WY     SUNNY     81  37  20 VRB5      29.48F
CODY           SUNNY     77  34  21 W13G28    29.47F
YELLOWSTONE LA   N/A     61  36  39 W8G21     29.70F
IDAHO FALLS    MOSUNNY   75  33  21 SW40G54   29.61F
SALMON         SUNNY     68  21  17 N21G28    29.53S
BOISE          SUNNY     69  16  13 N21G31    29.76F
SPOKANE        MOSUNNY   59  20  22 W15G21    29.76F
$$

REGIONAL REPORTS...ALBERTA

CITY           SKY/WX    TMP DP  RH WIND       PRES   REMARKS
EDMONTON       RAIN      50  50 100 N31G48    29.17R FOG
CALGARY        LGT RAIN  48  34  57 NW25G36   29.26R
LETHBRIDGE     CLOUDY    57  23  26 W40G55    29.27F
MEDICINE HAT   MOSUNNY   59  37  44 W22G29    29.24R
WATERTON GATE    N/A     50  18  27 SW37G62     N/A
MILK RIVER       N/A     61  21  21 W33G45      N/A
ONEFOUR          N/A     61  16  17 W32G44      N/A
$$

REGIONAL REPORTS...SASKATCHEWAN

CITY           SKY/WX    TMP DP  RH WIND       PRES   REMARKS
REGINA         MOSUNNY   75  37  25 S33G49    29.21F
SASKATOON      PTSUNNY   75  45  33 SE14G25   29.06F
CYPRESS HILLS    N/A     52  19  28 W18G38      N/A
VAL MARIE        N/A     72  16  12 W37G47      N/A
ROCKGLEN         N/A     72  39  30 S17         N/A
ASSINIBOIA       N/A     55  50  82 N22G30      N/A
$$




USA.gov is the U.S. government's official web portal to all federal, state and local government web resources and services.